When you browse on this site, cookies collect data to enhance your experience and personalize the content and advertising you see.
Visit our Privacy Policy to learn more. By continuing to use the site, you agree to this use of cookies and data.

Hourly Weather Kanye

Today, 14 July, Tuesday

Time Temperature Precipitation Wind Pressure Humidity
00:00 +7°C° 0 mm 3 mps 650 mmHg 23%
01:00 +5°C° 0 mm 3 mps 650 mmHg 25%
02:00 +4°C° 0 mm 3 mps 649 mmHg 26%
03:00 +3°C° 0 mm 3 mps 649 mmHg 28%
04:00 +3°C° 0 mm 3 mps 650 mmHg 31%
05:00 +2°C° 0 mm 3 mps 650 mmHg 33%
06:00 +3°C° 0 mm 3 mps 650 mmHg 37%
07:00 +3°C° 0 mm 3 mps 651 mmHg 42%
08:00 +3°C° 0 mm 3 mps 652 mmHg 46%
09:00 +6°C° 0 mm 5 mps 652 mmHg 43%
10:00 +9°C° 0 mm 6 mps 653 mmHg 41%
11:00 +11°C° 0 mm 7 mps 654 mmHg 39%
12:00 +12°C° 0 mm 7 mps 654 mmHg 32%
13:00 +15°C° 0 mm 7 mps 654 mmHg 25%
14:00 +16°C° 0 mm 7 mps 654 mmHg 18%
15:00 +15°C° 0 mm 7 mps 654 mmHg 21%
16:00 +13°C° 0 mm 6 mps 653 mmHg 24%
17:00 +11°C° 0 mm 6 mps 653 mmHg 28%
18:00 +9°C° 0 mm 5 mps 653 mmHg 32%
19:00 +7°C° 0 mm 5 mps 653 mmHg 37%
20:00 +4°C° 0 mm 4 mps 654 mmHg 42%
21:00 +4°C° 0 mm 4 mps 654 mmHg 43%
22:00 +3°C° 0 mm 4 mps 655 mmHg 45%
23:00 +3°C° 0 mm 4 mps 655 mmHg 47%

Tomorrow, 15 July, Wednesday

Time Temperature Precipitation Wind Pressure Humidity
00:00 +1°C° 0 mm 4 mps 655 mmHg 49%
01:00 +1°C° 0 mm 3 mps 655 mmHg 51%
02:00 +1°C° 0 mm 3 mps 655 mmHg 53%
03:00 0°C° 0 mm 3 mps 655 mmHg 53%
04:00 0°C° 0 mm 3 mps 655 mmHg 54%
05:00 -1°C° 0 mm 3 mps 656 mmHg 54%
06:00 -1°C° 0 mm 4 mps 656 mmHg 51%
07:00 -1°C° 0 mm 4 mps 657 mmHg 49%
08:00 0°C° 0 mm 5 mps 657 mmHg 46%
09:00 +3°C° 0 mm 5 mps 658 mmHg 36%
10:00 +7°C° 0 mm 6 mps 659 mmHg 26%
11:00 +10°C° 0 mm 6 mps 660 mmHg 16%
12:00 +13°C° 0 mm 6 mps 659 mmHg 15%
13:00 +14°C° 0 mm 6 mps 659 mmHg 15%
14:00 +15°C° 0 mm 5 mps 659 mmHg 14%
15:00 +15°C° 0 mm 5 mps 659 mmHg 19%
16:00 +14°C° 0 mm 4 mps 659 mmHg 24%
17:00 +14°C° 0 mm 4 mps 658 mmHg 28%
18:00 +12°C° 0 mm 4 mps 658 mmHg 40%
19:00 +9°C° 0 mm 3 mps 658 mmHg 51%
20:00 +7°C° 0 mm 3 mps 658 mmHg 63%
21:00 +7°C° 0 mm 3 mps 658 mmHg 70%
22:00 +5°C° 0 mm 3 mps 659 mmHg 77%
23:00 +4°C° 0 mm 3 mps 659 mmHg 85%

Day after tomorrow, 16 July, Thursday

Time Temperature Precipitation Wind Pressure Humidity
00:00 +4°C° 0 mm 3 mps 659 mmHg 86%
01:00 +3°C° 0 mm 3 mps 659 mmHg 86%
02:00 +3°C° 0 mm 3 mps 659 mmHg 87%
03:00 +2°C° 0 mm 3 mps 659 mmHg 87%
04:00 +1°C° 0 mm 3 mps 659 mmHg 86%
05:00 +1°C° 0 mm 2 mps 659 mmHg 86%
06:00 +2°C° 0 mm 2 mps 659 mmHg 81%
07:00 +2°C° 0 mm 2 mps 660 mmHg 76%
08:00 +3°C° 0 mm 2 mps 660 mmHg 72%
09:00 +4°C° 0 mm 3 mps 661 mmHg 60%
10:00 +7°C° 0 mm 4 mps 662 mmHg 49%
11:00 +10°C° 0 mm 5 mps 662 mmHg 38%
12:00 +13°C° 0 mm 5 mps 662 mmHg 33%
13:00 +14°C° 0 mm 4 mps 662 mmHg 29%
14:00 +15°C° 0 mm 4 mps 661 mmHg 25%
15:00 +15°C° 0 mm 4 mps 661 mmHg 24%
16:00 +16°C° 0 mm 3 mps 660 mmHg 24%
17:00 +16°C° 0 mm 3 mps 660 mmHg 23%
18:00 +13°C° 0 mm 2 mps 659 mmHg 32%
19:00 +9°C° 0 mm 2 mps 659 mmHg 40%
20:00 +7°C° 0 mm 1 mps 658 mmHg 48%
21:00 +6°C° 0 mm 1 mps 658 mmHg 50%
22:00 +5°C° 0 mm 1 mps 658 mmHg 53%
23:00 +5°C° 0 mm 1 mps 658 mmHg 55%

17 July, Friday

Time Temperature Precipitation Wind Pressure Humidity
00:00 +4°C° 0 mm 1 mps 658 mmHg 56%
01:00 +4°C° 0 mm 1 mps 657 mmHg 57%
02:00 +3°C° 0 mm 1 mps 657 mmHg 58%
03:00 +3°C° 0 mm 1 mps 657 mmHg 58%
04:00 +2°C° 0 mm 1 mps 657 mmHg 59%
05:00 +2°C° 0 mm 1 mps 657 mmHg 60%
06:00 +3°C° 0 mm 1 mps 657 mmHg 55%
07:00 +4°C° 0 mm 1 mps 658 mmHg 50%
08:00 +5°C° 0 mm 1 mps 659 mmHg 45%
09:00 +7°C° 0 mm 2 mps 660 mmHg 37%
10:00 +12°C° 0 mm 2 mps 660 mmHg 28%
11:00 +14°C° 0 mm 3 mps 661 mmHg 20%
12:00 +16°C° 0 mm 3 mps 660 mmHg 17%
13:00 +18°C° 0 mm 3 mps 660 mmHg 13%
14:00 +20°C° 0 mm 3 mps 660 mmHg 10%
15:00 +19°C° 0 mm 3 mps 659 mmHg 10%
16:00 +19°C° 0 mm 2 mps 659 mmHg 11%
17:00 +18°C° 0 mm 2 mps 658 mmHg 11%
18:00 +15°C° 0 mm 2 mps 657 mmHg 18%
19:00 +11°C° 0 mm 1 mps 656 mmHg 25%
20:00 +8°C° 0 mm 1 mps 656 mmHg 32%
21:00 +7°C° 0 mm 1 mps 656 mmHg 34%
22:00 +7°C° 0 mm 1 mps 656 mmHg 35%
23:00 +6°C° 0 mm 1 mps 656 mmHg 37%

18 July, Saturday

Time Temperature Precipitation Wind Pressure Humidity
00:00 +6°C° 0 mm 1 mps 655 mmHg 40%
01:00 +5°C° 0 mm 1 mps 655 mmHg 42%
02:00 +5°C° 0 mm 1 mps 655 mmHg 45%
03:00 +4°C° 0 mm 1 mps 655 mmHg 44%
04:00 +4°C° 0 mm 1 mps 655 mmHg 43%
05:00 +4°C° 0 mm 1 mps 655 mmHg 43%
06:00 +5°C° 0 mm 1 mps 655 mmHg 37%
07:00 +6°C° 0 mm 1 mps 656 mmHg 32%
08:00 +7°C° 0 mm 1 mps 657 mmHg 27%
09:00 +10°C° 0 mm 2 mps 658 mmHg 22%
10:00 +14°C° 0 mm 2 mps 659 mmHg 18%
11:00 +17°C° 0 mm 2 mps 659 mmHg 14%
12:00 +19°C° 0 mm 2 mps 659 mmHg 13%
13:00 +20°C° 0 mm 2 mps 659 mmHg 11%
14:00 +22°C° 0 mm 3 mps 658 mmHg 9%
15:00 +21°C° 0 mm 2 mps 658 mmHg 10%
16:00 +20°C° 0 mm 2 mps 657 mmHg 11%
17:00 +20°C° 0 mm 1 mps 657 mmHg 12%
18:00 +16°C° 0 mm 1 mps 656 mmHg 18%
19:00 +13°C° 0 mm 1 mps 656 mmHg 24%
20:00 +10°C° 0 mm 1 mps 655 mmHg 30%
21:00 +9°C° 0 mm 1 mps 655 mmHg 32%
22:00 +9°C° 0 mm 1 mps 655 mmHg 33%
23:00 +8°C° 0 mm 1 mps 655 mmHg 34%

19 July, Sunday

Time Temperature Precipitation Wind Pressure Humidity
00:00 +8°C° 0 mm 1 mps 654 mmHg 38%
01:00 +7°C° 0 mm 1 mps 654 mmHg 41%
02:00 +6°C° 0 mm 1 mps 654 mmHg 44%
03:00 +6°C° 0 mm 1 mps 654 mmHg 44%
04:00 +6°C° 0 mm 1 mps 653 mmHg 43%
05:00 +5°C° 0 mm 1 mps 653 mmHg 43%
06:00 +6°C° 0 mm 1 mps 654 mmHg 36%
07:00 +8°C° 0 mm 1 mps 655 mmHg 29%
08:00 +9°C° 0 mm 1 mps 656 mmHg 22%
09:00 +13°C° 0 mm 1 mps 657 mmHg 18%
10:00 +16°C° 0 mm 2 mps 658 mmHg 13%
11:00 +20°C° 0 mm 2 mps 659 mmHg 9%
12:00 +21°C° 0 mm 2 mps 658 mmHg 8%
13:00 +23°C° 0 mm 2 mps 658 mmHg 7%
14:00 +24°C° 0 mm 2 mps 658 mmHg 6%
15:00 +23°C° 0 mm 2 mps 657 mmHg 7%
16:00 +21°C° 0 mm 2 mps 657 mmHg 7%
17:00 +22°C° 0 mm 1 mps 656 mmHg 8%
18:00 +18°C° 0 mm 1 mps 655 mmHg 13%
19:00 +14°C° 0 mm 1 mps 655 mmHg 17%
20:00 +10°C° 0 mm 1 mps 654 mmHg 22%
21:00 +10°C° 0 mm 1 mps 654 mmHg 23%
22:00 +9°C° 0 mm 1 mps 654 mmHg 25%
23:00 +9°C° 0 mm 1 mps 654 mmHg 26%
Show more